Location: Manosque
(43.8357°N, 5.7909°E)
Time: 14:35:32
(UTC+02:00)

Tiangong 1 - Pass Details

Date: 01 April 2018
Orbit: 144 x 152 km, 42.7° (Epoch: 01 April)

Event Time Altitude Azimuth Distance (km) Brightness Sun altitude
Rises 06:42:20 0° 240° (WSW) 1,434 - -7.3°
Exits shadow 06:44:03 - 225° (SW) 731 2.0 -7.0°
Reaches altitude 10° 06:44:07 10° 223° (SW) 705 1.9 -7.0°
Maximum altitude 06:45:27 23° 164° (SSE) 384 1.1 -6.7°
Drops below altitude 10° 06:46:48 10° 105° (ESE) 711 3.6 -6.5°
Sets 06:48:37 0° 88° (E) 1,449 6.2 -6.2°
